{"data":{"norad_id":56907,"intl_designator":"2023-083AH","name":"STARLINK-6110","alt_names":[],"object_type":"PAYLOAD","status":"ACTIVE","operator":null,"country":"US","launch_date":"2023-06-12","launch_site_code":"AFETR","launch_vehicle":null,"mission":null,"orbit_class":"UNKNOWN","rcs_meters":null,"size_class":null,"mass_kg":null,"dimensions":null,"purposes":["comms"],"wikipedia_slug":null,"has_3d_model":false,"image_url":null,"decayed_at":null,"tle_current":{"epoch":"2026-05-24T22:35:29.277312Z","epoch_age_seconds":70289,"freshness":"FRESH","line1":"1 56907U 23083AH  26144.94131108  .00000335  00000+0  21707-4 0  9998","line2":"2 56907  43.0040 359.7305 0001404 264.5342  95.5350 15.27577171163579","mean_motion":15.27577171,"eccentricity":0.0001404,"inclination_deg":43.004,"raan_deg":359.7305,"arg_perigee_deg":264.5342,"mean_anomaly_deg":95.535,"bstar":2.1707e-5,"rev_number":16357,"period_min":94.26692329117,"perigee_km":482.09425537923,"apogee_km":484.02087881367,"semimajor_km":6861.1945670965,"source":"CELESTRAK","updated_at":"2026-05-25T13:38:18.202844Z"}}}